ARIANE 40+ R/B (23561 NORAD) Tracking and Keplerian Element Data

This shows tracking and keplerian element data for the satellite.

Feedback or suggestion? Click here.




ElementValue
Catalog23561
NameARIANE 40+ R/B
Epoch Orbit56185
Epoch Day34.80006306
Epoch Year2025
RAAN105.612
Inclination98.4998
Eccentricity0.0005784
Argument of Perigee252.9361
Mean Anonmoly218.4108
Mean Motion14.39356292
Decay Rate7.08E-06
L11 23561U 95021B 25034.80006306 .00000708 00000+0 24183-3 0 9996
L22 23561 98.4998 105.6120 0005784 252.9361 218.4108 14.39356292561856



Live tracking and technical data element details for ARIANE 40+ R/B (NORAD 23561). ARIANE 40+ R/B can be tracked NOW for your location showing map with azimuth and elevation plus other details from your city location.







IsCatalogInMostPopularTable: catalog: 23561, numindb: 673
Update: records affected: 1



GetName: 23561 ARIANE 40+ R/B

Hit Count: updated at: Wed, 18 Jun 2025 05:33:33 GMT